Colorado Springs, CO

12:26 PM MST on February 26, 2017 (GMT -0700)
City Of Colorado Springs Municipal

Weather History for KCOS - December, 2012

Change the Weather History Date:

Friday, December 14, 2012

  Actual Average Record
Temperature  
Mean Temperature 32 °F 29 °F  
Max Temperature 42 °F 42 °F 69 °F (1924)
Min Temperature 22 °F 17 °F -14 °F (1926)
Degree Days  
Heating Degree Days 33 36  
Month to date heating degree days 413 486  
Since 1 July heating degree days 1649 1967  
Cooling Degree Days 0 0  
Month to date cooling degree days 0 0  
Year to date cooling degree days 873 455  
Moisture  
Dew Point 21 °F    
Average Humidity 62    
Maximum Humidity 89    
Minimum Humidity 35    
Precipitation  
Precipitation 0.00 in 0.01 in 0.36 in (1988)
Month to date precipitation 0.12 0.17  
Year to date precipitation 7.97 16.37  
Snow  
Snow 0.00 in 0.20 in 7.30 in (1895)
Month to date snowfall 3.3 2.7  
Since 1 July snowfall 4.2 10.5  
Snow Depth 0.00 in    
Sea Level Pressure  
Sea Level Pressure 29.69 in    
Wind  
Wind Speed 7 mph (NE)    
Max Wind Speed 16 mph    
Max Gust Speed 21 mph    
Visibility 10 miles    
Events      
T = Trace of Precipitation, MM = Missing Value Source: NWS Daily Summary

Daily Weather History Graph

Daily Weather History Graph

Search for Another Location

Airport or City:

Trip Planner

Search our weather history database for the weather conditions in past years. The results will help you decide how hot, cold, wet, or windy it might be!

Date:

Astronomy

Dec. 14, 2012 Rise Set
Actual Time 7:09 AM MST 4:37 PM MST
Civil Twilight 6:39 AM MST 5:07 PM MST
Nautical Twilight 6:06 AM MST 5:41 PM MST
Astronomical Twilight 5:33 AM MST 6:13 PM MST
Moon 8:17 AM MST (12/14) 6:32 PM MST (12/14)
Length of Visible Light 10h 28m
Length of Day
9h 28m
Waxing Crescent, 3% of the Moon is Illuminated
Dec 14
Waxing Crescent
Dec 19
First Quarter
Dec 28
Full
Jan 4
Last Quarter
Jan 11
New

Hourly Weather History & Observations

Time (MST) Temp. Windchill Dew Point Humidity Pressure Visibility Wind Dir Wind Speed Gust Speed Precip Events Conditions
12:54 AM 27.0 °F 20.5 °F 10.9 °F 51% 29.91 in 10.0 mi NNE 5.8 mph - N/A   Clear
1:54 AM 25.0 °F 18.1 °F 10.0 °F 53% 29.90 in 10.0 mi North 5.8 mph - N/A   Clear
2:54 AM 26.1 °F 18.4 °F 10.9 °F 53% 29.89 in 10.0 mi North 6.9 mph - N/A   Clear
3:54 AM 32.0 °F 26.4 °F 12.2 °F 44% 29.85 in 10.0 mi East 5.8 mph - N/A   Clear
4:54 AM 30.2 °F 25.4 °F 14.0 °F 51% 29.81 in 10.0 mi NE 4.6 mph - N/A   Clear
5:54 AM 32.0 °F 28.7 °F 14.0 °F 48% 29.86 in 10.0 mi NE 3.5 mph - N/A   Overcast
6:54 AM 35.1 °F 31.0 °F 12.9 °F 40% 29.80 in 10.0 mi North 4.6 mph - N/A   Mostly Cloudy
7:54 AM 37.0 °F 34.5 °F 12.9 °F 37% 29.78 in 10.0 mi NNW 3.5 mph - N/A   Mostly Cloudy
8:25 AM 33.8 °F 25.3 °F 15.8 °F 48% 29.73 in 10.0 mi SE 11.5 mph - N/A   Mostly Cloudy
8:54 AM 35.1 °F 31.0 °F 16.0 °F 46% 29.80 in 10.0 mi West 4.6 mph - N/A   Mostly Cloudy
9:54 AM 36.0 °F 29.0 °F 14.0 °F 41% 29.78 in 10.0 mi East 9.2 mph - N/A   Mostly Cloudy
10:54 AM 37.0 °F 32.4 °F 15.1 °F 41% 29.79 in 10.0 mi Variable 5.8 mph - N/A   Mostly Cloudy
11:54 AM 36.0 °F 28.0 °F 28.9 °F 76% 29.72 in 10.0 mi SE 11.5 mph - N/A   Mostly Cloudy
12:54 PM 39.0 °F - 30.9 °F 73% 29.63 in 10.0 mi Calm Calm - N/A   Mostly Cloudy
1:54 PM 39.9 °F 35.8 °F 28.9 °F 65% 29.60 in 10.0 mi East 5.8 mph - N/A   Mostly Cloudy
2:54 PM 41.0 °F 39.0 °F 28.4 °F 61% 29.52 in 10.0 mi East 3.5 mph - N/A   Scattered Clouds
3:54 PM 37.9 °F 30.5 °F 28.9 °F 70% 29.55 in 10.0 mi SSE 11.5 mph - N/A   Scattered Clouds
4:32 PM 37.4 °F 30.8 °F 32.0 °F 81% 29.52 in 10.0 mi SE 9.2 mph - N/A   Mostly Cloudy
4:54 PM 36.0 °F 33.3 °F 30.9 °F 82% 29.57 in 10.0 mi SSE 3.5 mph - N/A   Mostly Cloudy
5:54 PM 35.1 °F 32.2 °F 30.9 °F 85% 29.52 in 10.0 mi NNW 3.5 mph - N/A   Scattered Clouds
6:54 PM 34.0 °F 28.8 °F 30.0 °F 85% 29.51 in 10.0 mi NNW 5.8 mph - N/A   Partly Cloudy
7:54 PM 39.0 °F 31.4 °F 25.0 °F 57% 29.51 in 10.0 mi North 12.7 mph - N/A   Clear
8:54 PM 39.0 °F 32.3 °F 23.0 °F 53% 29.55 in 10.0 mi North 10.4 mph - N/A   Clear
9:54 PM 37.9 °F 30.5 °F 23.0 °F 55% 29.57 in 10.0 mi North 11.5 mph - N/A   Clear
10:54 PM 39.0 °F 31.0 °F 21.0 °F 49% 29.59 in 10.0 mi NNW 13.8 mph - N/A   Clear
11:54 PM 37.9 °F 29.6 °F 19.9 °F 48% 29.63 in 10.0 mi North 13.8 mph - N/A   Clear